Location: Hiram
(41.3130°N, 81.1440°W)
Time: 15:17:31
(UTC-05:00)

Amateur Radio Satellites - All Passes

Search period start: 03 March 2015 14:47
Search period end: 04 March 2015 14:47
Location: Hiram, 41.3130°N, 81.1440°W

Satellite Date Start Highest point End Downlink Frequencies (MHz)
Time Altitude Azimuth
Oscar 19 03 Mar 14:49:45 14:50:38 10° 274° (W) 14:51:08 437.125/150
HORYU 2 03 Mar 15:10:36 15:15:02 81° 256° (WSW) 15:19:30 437.375
JAS-2 03 Mar 15:15:46 15:20:43 35° 66° (ENE) 15:26:16 435.910
ISS 03 Mar 15:36:50 15:40:03 63° 218° (SW) 15:43:15 145.825
SWISSCUBE 03 Mar 15:41:48 15:43:57 13° 298° (WNW) 15:45:52 437.505
KKS-1 03 Mar 15:45:38 15:49:53 45° 288° (WNW) 15:54:06 437.445
STARS 03 Mar 15:49:54 15:54:15 63° 286° (WNW) 15:58:34 437.465
BEESAT 03 Mar 15:50:48 15:52:21 11° 299° (WNW) 15:53:39 436.000
BEESAT 3 03 Mar 16:02:24 16:02:58 10° 109° (ESE) 16:03:45 437.485
YUBILEINY 03 Mar 16:11:22 16:19:56 67° 93° (E) 16:28:39 435.215
M-CUBED/EXP-1 PRIME 03 Mar 16:14:49 16:18:06 21° 99° (E) 16:21:40 437.505
AUBIESAT-1 03 Mar 16:16:09 16:19:18 20° 99° (E) 16:22:42 437.475
AO-7 03 Mar 16:18:32 16:26:39 52° 259° (W) 16:34:44 29.400- 29.500
BEESAT 2 03 Mar 16:26:42 16:29:21 17° 112° (ESE) 16:32:11 435.950
Cubesat XI-IV 03 Mar 16:40:21 16:44:10 21° 64° (ENE) 16:48:09 437.490
CUTE-I 03 Mar 16:48:40 16:52:49 24° 65° (ENE) 16:57:06 437.470
VERMONT LUNAR 03 Mar 16:50:39 16:53:15 20° 152° (SSE) 16:55:54 437.305
JAS-2 03 Mar 17:00:56 17:05:53 33° 267° (W) 17:11:17 435.910
PHONESAT 2.4 03 Mar 17:01:56 17:03:43 13° 148° (SSE) 17:05:36 2401.200-2431.200
MOZHAYETS 4 03 Mar 17:03:03 17:07:39 59° 100° (E) 17:12:14
BEESAT 3 03 Mar 17:36:27 17:40:32 72° 305° (NW) 17:44:41 437.485
AIST 1 03 Mar 17:41:06 17:44:43 25° 73° (ENE) 17:48:24
O/OREOS (USA 219) 03 Mar 17:45:43 17:47:28 12° 49° (NE) 17:49:26 437.305
M-CUBED/EXP-1 PRIME 03 Mar 17:49:09 17:53:06 38° 293° (WNW) 17:57:19 437.505
PRISM 03 Mar 17:50:08 17:51:51 12° 89° (E) 17:53:47 437.425
AUBIESAT-1 03 Mar 17:50:14 17:54:16 41° 293° (WNW) 17:58:33 437.475
STRAND 1 03 Mar 17:59:11 18:00:04 11° 86° (E) 18:01:20 437.568
BEESAT 2 03 Mar 18:03:16 18:07:14 45° 308° (NW) 18:11:16 435.950
AIST 2 03 Mar 18:05:42 18:09:56 75° 121° (ESE) 18:14:15 435.215
YUBILEINY 03 Mar 18:10:19 18:17:36 27° 295° (WNW) 18:24:41 435.215
Cubesat XI-IV 03 Mar 18:18:39 18:23:54 55° 260° (W) 18:29:12 437.490
VERMONT LUNAR 03 Mar 18:27:21 18:30:48 60° 167° (SSE) 18:34:15 437.305
CUTE-I 03 Mar 18:27:28 18:32:38 46° 261° (W) 18:37:49 437.470
HO-68 03 Mar 18:35:21 18:39:42 18° 55° (NE) 18:44:22 435.675
BRITE-PL 03 Mar 18:37:53 18:40:41 15° 63° (ENE) 18:43:40 437.365/2234.400
PHONESAT 2.4 03 Mar 18:38:11 18:41:41 45° 162° (SSE) 18:45:11 2401.200-2431.200
MOZHAYETS 4 03 Mar 18:41:44 18:44:27 15° 296° (WNW) 18:47:00
CUBESAT XI-V 03 Mar 19:04:45 19:09:30 86° 103° (ESE) 19:14:12 437.345
DOVE 4 03 Mar 19:08:48 19:10:28 12° 63° (ENE) 19:12:22 437.250
BEESAT 3 03 Mar 19:18:20 19:19:26 11° 324° (NW) 19:20:25 437.485
AIST 1 03 Mar 19:18:36 19:22:24 27° 270° (W) 19:26:04
O/OREOS (USA 219) 03 Mar 19:23:01 19:27:38 83° 249° (WSW) 19:32:12 437.305
PRISM 03 Mar 19:23:37 19:27:46 55° 287° (WNW) 19:31:54 437.425
STRAND 1 03 Mar 19:34:54 19:40:05 87° 284° (WNW) 19:45:14 437.568
SEEDS 03 Mar 19:40:14 19:43:21 21° 68° (ENE) 19:46:36 437.485
CANX-2 03 Mar 19:44:32 19:48:13 31° 71° (ENE) 19:51:58 2200.000
AIST 2 03 Mar 19:46:29 19:49:06 15° 320° (NW) 19:51:38 435.215
CUTE 1.7 + AOD 2 03 Mar 20:02:38 20:06:37 44° 73° (ENE) 20:10:39 437.475
VERMONT LUNAR 03 Mar 20:05:09 20:08:39 78° 184° (S) 20:12:08 437.305
DELFI C3 03 Mar 20:10:59 20:12:35 12° 65° (ENE) 20:14:23 145.870
GOMX 1 03 Mar 20:12:39 20:18:00 69° 76° (ENE) 20:23:06 467.674
BRITE-PL 03 Mar 20:12:59 20:18:39 84° 256° (WSW) 20:24:05 437.365/2234.400
PHONESAT 2.4 03 Mar 20:16:22 20:20:01 80° 181° (S) 20:23:40 2401.200-2431.200
UWE-3 03 Mar 20:19:13 20:21:14 13° 65° (ENE) 20:23:27 435.000/436.395/437.385
HO-68 03 Mar 20:19:25 20:26:34 88° 77° (ENE) 20:33:47 435.675
PCSat 03 Mar 20:21:45 20:26:55 50° 114° (ESE) 20:32:11 145.827
GONETS M04 03 Mar 20:28:00 20:33:07 18° 79° (E) 20:38:43
AAUSAT CUBESAT 2 03 Mar 20:42:13 20:46:21 76° 76° (ENE) 20:50:30 437.432
DOVE 4 03 Mar 20:42:32 20:47:42 87° 251° (WSW) 20:52:38 437.250
Oscar 11 03 Mar 20:42:54 20:46:50 37° 71° (ENE) 20:50:49 145.826/435.025
CINEMA 3 03 Mar 20:43:00 20:47:37 52° 73° (ENE) 20:52:04 145.822/145.860
CUBESAT XI-V 03 Mar 20:44:57 20:46:19 11° 298° (WNW) 20:47:26 437.345
COMPASS 1 03 Mar 20:45:40 20:49:49 84° 257° (WSW) 20:54:01 437.405
CUBEBUG 2 03 Mar 20:56:41 21:00:51 39° 72° (ENE) 21:04:57 437.445
DX 1 03 Mar 21:09:01 21:13:01 36° 70° (ENE) 21:17:04 434.975-435.025
50 SAT 03 Mar 21:13:11 21:15:11 14° 66° (ENE) 21:17:19 437.505
RS-15 03 Mar 21:13:45 21:17:28 13° 98° (E) 21:22:15 29.354- 29.394
SEEDS 03 Mar 21:15:17 21:19:02 31° 264° (W) 21:22:47 437.485
STRAND 1 03 Mar 21:16:43 21:18:36 12° 300° (WNW) 21:20:12 437.568
AISAT 03 Mar 21:18:23 21:21:35 20° 66° (ENE) 21:24:55 437.250
CANX-2 03 Mar 21:20:55 21:24:14 22° 267° (W) 21:27:29 2200.000
HUMSAT D 03 Mar 21:26:17 21:29:52 28° 70° (ENE) 21:33:28 437.325/437.525
VELOX 1 03 Mar 21:27:00 21:30:30 23° 67° (ENE) 21:34:07 145.980
FUNcube-1 03 Mar 21:29:37 21:33:54 60° 75° (ENE) 21:38:08 145.935
ZACube-1 03 Mar 21:31:15 21:35:34 64° 76° (ENE) 21:39:49 437.345
UKube-1 03 Mar 21:36:45 21:41:05 70° 74° (ENE) 21:45:26 .
CUTE 1.7 + AOD 2 03 Mar 21:40:17 21:42:51 15° 270° (W) 21:45:15 437.475
VERMONT LUNAR 03 Mar 21:43:07 21:46:23 37° 201° (SSW) 21:49:37 437.305
DELFI C3 03 Mar 21:43:26 21:47:23 55° 260° (W) 21:51:22 145.870
ESTCUBE 1 03 Mar 21:47:19 21:50:25 19° 66° (ENE) 21:53:40 437.505/2401.250
UWE-3 03 Mar 21:53:00 21:57:24 60° 260° (W) 22:01:41 435.000/436.395/437.385
GOMX 1 03 Mar 21:53:30 21:56:36 15° 271° (W) 21:59:22 467.674
PHONESAT 2.4 03 Mar 21:54:50 21:58:23 53° 196° (SSW) 22:01:55 2401.200-2431.200
BRITE-PL 03 Mar 21:56:32 21:57:57 11° 275° (W) 21:58:57 437.365/2234.400
UNISAT 6 03 Mar 21:57:58 22:00:00 13° 90° (E) 22:02:16 437.425
PCSat 03 Mar 22:06:05 22:10:38 26° 313° (NW) 22:15:10 145.827
HO-68 03 Mar 22:10:59 22:15:21 16° 273° (W) 22:19:18 435.675
Oscar 11 03 Mar 22:20:03 22:23:12 19° 268° (W) 22:26:13 145.826/435.025
GONETS M04 03 Mar 22:20:13 22:28:56 88° 280° (W) 22:37:41
TIGRISAT 03 Mar 22:21:21 22:24:48 24° 94° (E) 22:28:20 435.000
CINEMA 3 03 Mar 22:22:07 22:25:08 16° 269° (W) 22:27:54 145.822/145.860
DUCHIFAT 1 03 Mar 22:22:14 22:24:03 13° 89° (E) 22:26:05 145.980
CUBEBUG 2 03 Mar 22:34:28 22:37:44 19° 268° (W) 22:40:49 437.445
ANTELSAT 03 Mar 22:35:16 22:39:11 34° 97° (E) 22:43:12 437.575/2403.000
CUSAT 1 03 Mar 22:40:04 22:41:59 12° 92° (E) 22:44:05 437.405
POPSAT HIP 1 03 Mar 22:42:35 22:45:52 22° 93° (E) 22:49:14 437.405
POLYITAN 1 03 Mar 22:42:39 22:45:59 23° 94° (E) 22:49:22 437.675
50 SAT 03 Mar 22:46:00 22:49:51 47° 261° (W) 22:53:41 437.505
DX 1 03 Mar 22:46:04 22:49:24 20° 267° (W) 22:52:39 434.975-435.025
CUBEBUG 1 03 Mar 22:52:43 22:57:09 82° 76° (ENE) 23:01:38 437.445
AISAT 03 Mar 22:53:42 22:57:58 41° 262° (W) 23:02:13 437.250
HUMSAT D 03 Mar 23:02:15 23:05:40 23° 266° (W) 23:09:00 437.325/437.525
VELOX 1 03 Mar 23:02:51 23:06:56 34° 263° (W) 23:11:01 145.980
NANOSAT C BR1 03 Mar 23:04:48 23:08:47 39° 98° (E) 23:12:44 145.865
FUNcube-1 03 Mar 23:08:56 23:10:42 12° 271° (W) 23:12:11 145.935
ZACube-1 03 Mar 23:11:00 23:12:26 11° 272° (W) 23:13:36 437.345
UKube-1 03 Mar 23:16:57 23:17:49 10° 272° (W) 23:18:23 .
RS-15 03 Mar 23:17:16 23:27:59 68° 117° (ESE) 23:38:55 29.354- 29.394
TISAT 1 03 Mar 23:20:13 23:24:07 36° 71° (ENE) 23:28:05 437.305
SPROUT 03 Mar 23:20:32 23:24:35 40° 72° (ENE) 23:28:39 437.525
ESTCUBE 1 03 Mar 23:22:42 23:27:01 43° 261° (W) 23:31:22 437.505/2401.250
UNISAT 6 03 Mar 23:33:00 23:37:11 52° 286° (WNW) 23:41:25 437.425
PHONESAT 2.4 03 Mar 23:34:00 23:36:25 17° 210° (SSW) 23:38:45 2401.200-2431.200
SWISSCUBE 03 Mar 23:34:59 23:35:56 11° 60° (ENE) 23:37:10 437.505
QB50P1 03 Mar 23:37:48 23:42:03 84° 284° (WNW) 23:46:15 145.935-145.965
BUGSAT 1 03 Mar 23:41:49 23:46:00 79° 102° (ESE) 23:50:05 437.445
QB50P2 03 Mar 23:42:06 23:46:20 74° 285° (WNW) 23:50:32 145.880/145.840
BEESAT 03 Mar 23:42:38 23:44:17 12° 61° (ENE) 23:46:10 436.000
DANDE 03 Mar 23:55:44 00:02:20 54° 98° (E) 00:07:20 436.750
DUCHIFAT 1 03 Mar 23:56:11 00:00:18 52° 287° (WNW) 00:04:23 145.980
TIGRISAT 03 Mar 23:57:52 00:01:36 29° 290° (WNW) 00:05:19 435.000
ITUPSAT 1 04 Mar 00:08:43 00:12:13 21° 66° (ENE) 00:15:52 437.325
ANTELSAT 04 Mar 00:12:34 00:15:50 21° 292° (WNW) 00:19:02 437.575/2403.000
POPSAT HIP 1 04 Mar 00:18:06 00:21:50 30° 290° (WNW) 00:25:29 437.405
POLYITAN 1 04 Mar 00:18:15 00:21:58 29° 290° (WNW) 00:25:36 437.675
CUSAT 1 04 Mar 00:18:33 00:24:50 79° 281° (W) 00:29:30 437.405
BEESAT 3 04 Mar 00:20:15 00:20:52 10° 35° (NE) 00:21:38 437.485
GONETS M04 04 Mar 00:21:26 00:27:19 18° 301° (WNW) 00:32:46
NANOSAT C BR1 04 Mar 00:41:28 00:44:24 18° 293° (WNW) 00:47:11 145.865
BEESAT 2 04 Mar 00:45:51 00:48:12 15° 40° (NE) 00:50:39 435.950
TISAT 1 04 Mar 00:56:55 01:00:05 19° 268° (W) 01:03:09 437.305
SPROUT 04 Mar 00:57:51 01:00:53 18° 269° (W) 01:03:48 437.525
SWISSCUBE 04 Mar 01:08:22 01:13:09 89° 69° (ENE) 01:17:59 437.505
KKS-1 04 Mar 01:08:58 01:11:42 17° 65° (ENE) 01:14:35 437.445
STARS 04 Mar 01:13:37 01:15:09 12° 63° (ENE) 01:16:53 437.465
BEESAT 04 Mar 01:16:46 01:21:32 82° 257° (WSW) 01:26:21 436.000
Oscar 19 04 Mar 01:17:14 01:21:43 31° 95° (E) 01:26:16 437.125/150
ITAMSAT 1 04 Mar 01:21:51 01:22:15 10° 86° (E) 01:23:03 435.822/435.867
SO-50 04 Mar 01:22:12 01:26:39 52° 118° (ESE) 01:31:16 436.795
RS-15 04 Mar 01:31:05 01:41:12 40° 322° (NW) 01:51:26 29.354- 29.394
DANDE 04 Mar 01:40:58 01:45:44 21° 287° (WNW) 01:49:30 436.750
ITUPSAT 1 04 Mar 01:45:19 01:49:52 43° 262° (W) 01:54:27 437.325
BEESAT 3 04 Mar 01:55:41 01:59:49 69° 55° (NE) 02:03:53 437.485
YUBILEINY 04 Mar 02:21:49 02:29:31 33° 68° (ENE) 02:37:21 435.215
BEESAT 2 04 Mar 02:22:45 02:26:55 73° 240° (WSW) 02:30:59 435.950
AIST 2 04 Mar 02:27:41 02:31:51 49° 53° (NE) 02:35:57 435.215
Gurwin Techsat 1B 04 Mar 02:37:40 02:42:46 45° 98° (E) 02:47:51 435.225
KKS-1 04 Mar 02:43:39 02:48:00 50° 260° (W) 02:52:22 437.445
STARS 04 Mar 02:46:41 02:51:07 72° 258° (WSW) 02:55:33 437.465
Oscar 19 04 Mar 02:56:33 03:01:04 32° 292° (WNW) 03:05:32 437.125/150
ITAMSAT 1 04 Mar 02:57:22 03:02:37 90° 80° (E) 03:07:50 435.822/435.867
HORYU 2 04 Mar 03:02:52 03:06:00 19° 92° (E) 03:09:16 437.375
SO-50 04 Mar 03:03:48 03:07:32 23° 318° (NW) 03:11:17 436.795
M-CUBED/EXP-1 PRIME 04 Mar 03:04:57 03:07:31 21° 63° (ENE) 03:10:14 437.505
AUBIESAT-1 04 Mar 03:05:51 03:08:17 19° 63° (ENE) 03:10:52 437.475
BEESAT 3 04 Mar 03:36:13 03:37:24 11° 251° (WSW) 03:38:21 437.485
RS-15 04 Mar 03:49:58 03:57:51 21° 355° (N) 04:05:52 29.354- 29.394
MOZHAYETS 4 04 Mar 04:05:00 04:09:27 55° 73° (ENE) 04:13:56
AIST 2 04 Mar 04:07:20 04:10:07 17° 249° (WSW) 04:12:42 435.215
JAS-2 04 Mar 04:07:49 04:14:43 39° 95° (E) 04:22:00 435.910
YUBILEINY 04 Mar 04:18:15 04:26:50 56° 269° (W) 04:35:18 435.215
Gurwin Techsat 1B 04 Mar 04:18:15 04:22:30 24° 295° (WNW) 04:26:37 435.225
AO-7 04 Mar 04:19:43 04:27:49 55° 102° (ESE) 04:35:55 29.400- 29.500
HORYU 2 04 Mar 04:38:42 04:42:52 39° 289° (WNW) 04:47:00 437.375
ITAMSAT 1 04 Mar 04:39:12 04:41:27 12° 300° (WNW) 04:43:27 435.822/435.867
M-CUBED/EXP-1 PRIME 04 Mar 04:39:56 04:42:29 20° 261° (W) 04:45:03 437.505
AUBIESAT-1 04 Mar 04:40:26 04:43:08 22° 261° (W) 04:45:52 437.475
PRISM 04 Mar 04:42:31 04:42:57 10° 62° (ENE) 04:43:38 437.425
PCSat 04 Mar 05:09:33 05:14:40 41° 53° (NE) 05:19:47 145.827
STRAND 1 04 Mar 05:13:54 05:17:11 18° 63° (ENE) 05:20:38 437.568
MOZHAYETS 4 04 Mar 05:44:33 05:47:06 14° 271° (W) 05:49:28
JAS-2 04 Mar 05:52:45 05:59:49 47° 291° (WNW) 06:07:11 435.910
RS-15 04 Mar 06:05:40 06:15:12 31° 29° (NNE) 06:25:16 29.354- 29.394
CUBESAT XI-V 04 Mar 06:07:57 06:12:39 83° 75° (ENE) 06:17:24 437.345
AIST 1 04 Mar 06:12:03 06:14:24 15° 87° (E) 06:16:58
AO-7 04 Mar 06:13:01 06:20:21 35° 300° (WNW) 06:27:31 29.400- 29.500
PRISM 04 Mar 06:13:47 06:17:55 75° 258° (WSW) 06:22:07 437.425
Cubesat XI-IV 04 Mar 06:35:50 06:41:09 60° 101° (E) 06:46:26 437.490
CUTE-I 04 Mar 06:44:18 06:49:41 71° 102° (ESE) 06:55:01 437.470
STRAND 1 04 Mar 06:50:52 06:55:57 61° 259° (W) 07:01:04 437.568
PCSat 04 Mar 06:53:18 06:57:57 29° 250° (WSW) 07:02:29 145.827
AIST 1 04 Mar 07:47:31 07:51:43 45° 282° (WNW) 07:55:57
HO-68 04 Mar 07:49:07 07:53:02 16° 87° (E) 07:57:23 435.675
O/OREOS (USA 219) 04 Mar 07:59:33 08:00:41 11° 99° (E) 08:02:06 437.305
SO-50 04 Mar 08:15:34 08:16:32 11° 30° (NNE) 08:17:41 436.795
ISS 04 Mar 08:16:05 08:19:04 36° 138° (SE) 08:22:04 145.825
GOMX 1 04 Mar 08:16:25 08:19:08 17° 90° (E) 08:21:56 467.674
Cubesat XI-IV 04 Mar 08:17:04 08:20:49 19° 297° (WNW) 08:24:24 437.490
RS-15 04 Mar 08:18:10 08:29:40 82° 56° (ENE) 08:41:41 29.354- 29.394
BRITE-PL 04 Mar 08:19:16 08:23:07 28° 94° (E) 08:26:50 437.365/2234.400
CUTE-I 04 Mar 08:25:55 08:29:14 16° 298° (WNW) 08:32:21 437.470
AAUSAT CUBESAT 2 04 Mar 08:27:26 08:29:02 12° 89° (E) 08:30:52 437.432
GONETS M04 04 Mar 08:30:32 08:38:52 47° 74° (ENE) 08:47:17
COMPASS 1 04 Mar 08:30:36 08:33:05 16° 90° (E) 08:35:44 437.405
CINEMA 3 04 Mar 08:41:22 08:41:30 10° 87° (E) 08:41:54 145.822/145.860
DOVE 4 04 Mar 08:42:59 08:46:14 22° 93° (E) 08:49:31 437.250
UNISAT 6 04 Mar 08:57:55 08:59:56 13° 65° (ENE) 09:02:08 437.425
SEEDS 04 Mar 08:59:20 09:03:19 40° 98° (E) 09:07:19 437.485
CANX-2 04 Mar 09:05:06 09:09:21 62° 101° (E) 09:13:34 2200.000
DUCHIFAT 1 04 Mar 09:16:12 09:17:20 11° 63° (ENE) 09:18:42 145.980
TIGRISAT 04 Mar 09:20:41 09:24:02 22° 68° (ENE) 09:27:26 435.000
FUNcube-1 04 Mar 09:20:56 09:21:32 10° 88° (E) 09:22:26 145.935
ZACube-1 04 Mar 09:22:17 09:23:28 11° 88° (E) 09:24:54 437.345
CUTE 1.7 + AOD 2 04 Mar 09:23:26 09:27:43 89° 283° (WNW) 09:31:58 437.475
DELFI C3 04 Mar 09:24:04 09:27:01 20° 93° (E) 09:30:05 145.870
UKube-1 04 Mar 09:26:49 09:28:08 11° 88° (E) 09:29:42 .
HO-68 04 Mar 09:34:35 09:41:49 89° 291° (WNW) 09:49:02 435.675
ANTELSAT 04 Mar 09:34:40 09:38:32 32° 71° (ENE) 09:42:24 437.575/2403.000
O/OREOS (USA 219) 04 Mar 09:35:01 09:39:34 71° 294° (WNW) 09:44:10 437.305
POPSAT HIP 1 04 Mar 09:36:07 09:39:02 19° 67° (ENE) 09:42:06 437.405
POLYITAN 1 04 Mar 09:36:25 09:39:24 19° 67° (ENE) 09:42:30 437.675
UWE-3 04 Mar 09:43:28 09:46:52 25° 94° (E) 09:50:21 435.000/436.395/437.385
ISS 04 Mar 09:52:36 09:55:31 30° 335° (NNW) 09:58:26 145.825
GOMX 1 04 Mar 09:53:32 09:57:37 39° 289° (WNW) 10:01:30 467.674
SO-50 04 Mar 09:53:32 09:58:21 49° 52° (NE) 10:03:08 436.795
NANOSAT C BR1 04 Mar 09:57:41 10:01:26 31° 70° (ENE) 10:05:14 145.865
BRITE-PL 04 Mar 09:57:53 10:01:37 25° 293° (WNW) 10:05:05 437.365/2234.400
AAUSAT CUBESAT 2 04 Mar 10:00:59 10:05:06 55° 286° (WNW) 10:09:12 437.432
COMPASS 1 04 Mar 10:05:03 10:09:03 43° 287° (WNW) 10:13:03 437.405
Oscar 11 04 Mar 10:05:50 10:10:10 76° 101° (E) 10:14:30 145.826/435.025
CINEMA 3 04 Mar 10:15:09 10:19:18 62° 285° (WNW) 10:23:23 145.822/145.860
DOVE 4 04 Mar 10:20:24 10:24:07 29° 290° (WNW) 10:27:41 437.250
CUBEBUG 2 04 Mar 10:24:06 10:28:17 89° 102° (ESE) 10:32:27 437.445
50 SAT 04 Mar 10:25:02 10:27:59 20° 93° (E) 10:31:02 437.505
GONETS M04 04 Mar 10:27:41 10:35:36 38° 273° (W) 10:43:22
QB50P1 04 Mar 10:30:24 10:34:40 73° 76° (ENE) 10:38:57 145.935-145.965
BUGSAT 1 04 Mar 10:31:40 10:35:51 55° 73° (ENE) 10:40:02 437.445
RS-15 04 Mar 10:31:52 10:41:09 28° 255° (WSW) 10:50:11 29.354- 29.394
UNISAT 6 04 Mar 10:31:59 10:36:20 59° 259° (W) 10:40:37 437.425
DX 1 04 Mar 10:33:07 10:37:29 68° 102° (ESE) 10:41:48 434.975-435.025
QB50P2 04 Mar 10:34:51 10:39:08 83° 78° (ENE) 10:43:26 145.880/145.840
SEEDS 04 Mar 10:35:57 10:38:53 18° 293° (WNW) 10:41:42 437.485
DANDE 04 Mar 10:39:18 10:41:12 18° 72° (ENE) 10:43:07 436.750
CANX-2 04 Mar 10:42:56 10:44:50 12° 295° (WNW) 10:46:32 2200.000
CUBEBUG 1 04 Mar 10:43:12 10:45:42 15° 90° (E) 10:48:22 437.445
AISAT 04 Mar 10:44:36 10:48:43 37° 97° (E) 10:52:49 437.250
HUMSAT D 04 Mar 10:45:34 10:49:36 53° 100° (E) 10:53:38 437.325/437.525
DUCHIFAT 1 04 Mar 10:48:24 10:52:40 72° 258° (WSW) 10:56:57 145.980
VELOX 1 04 Mar 10:53:10 10:57:26 44° 99° (E) 11:01:40 145.980
FUNcube-1 04 Mar 10:54:18 10:58:24 62° 285° (WNW) 11:02:31 145.935
ZACube-1 04 Mar 10:56:13 11:00:19 58° 286° (WNW) 11:04:24 437.345
TIGRISAT 04 Mar 10:56:42 11:00:40 33° 263° (W) 11:04:34 435.000
CUSAT 1 04 Mar 10:58:04 11:00:38 56° 79° (ENE) 11:03:19 437.405
DELFI C3 04 Mar 10:58:39 11:02:20 32° 289° (WNW) 11:05:58 145.870
UKube-1 04 Mar 11:00:29 11:04:48 63° 286° (WNW) 11:09:04 .
POPSAT HIP 1 04 Mar 11:10:39 11:14:42 39° 262° (W) 11:18:44 437.405
POLYITAN 1 04 Mar 11:11:05 11:15:07 38° 262° (W) 11:19:07 437.675
ANTELSAT 04 Mar 11:11:55 11:15:25 22° 266° (W) 11:18:47 437.575/2403.000
ESTCUBE 1 04 Mar 11:15:24 11:19:39 38° 97° (E) 11:23:54 437.505/2401.250
UWE-3 04 Mar 11:19:55 11:23:25 26° 290° (WNW) 11:26:53 435.000/436.395/437.385
HO-68 04 Mar 11:23:58 11:28:43 19° 304° (NW) 11:33:11 435.675
ISS 04 Mar 11:30:56 11:32:43 14° 354° (N) 11:34:29 145.825
NANOSAT C BR1 04 Mar 11:33:55 11:37:22 23° 267° (W) 11:40:42 145.865
SO-50 04 Mar 11:34:48 11:38:37 22° 248° (WSW) 11:42:17 436.795
Oscar 11 04 Mar 11:44:43 11:45:49 11° 297° (WNW) 11:46:41 145.826/435.025
50 SAT 04 Mar 11:59:35 12:03:03 29° 289° (WNW) 12:06:27 437.505
BUGSAT 1 04 Mar 12:09:40 12:11:44 13° 271° (W) 12:13:35 437.445
DX 1 04 Mar 12:11:23 12:13:15 12° 297° (WNW) 12:14:53 434.975-435.025
CUBEBUG 1 04 Mar 12:18:10 12:22:26 48° 287° (WNW) 12:26:38 437.445
AISAT 04 Mar 12:21:44 12:25:08 21° 293° (WNW) 12:28:24 437.250
HUMSAT D 04 Mar 12:22:56 12:25:01 13° 295° (WNW) 12:26:55 437.325/437.525
VELOX 1 04 Mar 12:30:38 12:33:43 18° 294° (WNW) 12:36:39 145.980
Oscar 19 04 Mar 12:34:01 12:38:52 45° 71° (ENE) 12:43:46 437.125/150
ITAMSAT 1 04 Mar 12:38:09 12:41:33 18° 63° (ENE) 12:45:07 435.822/435.867
TISAT 1 04 Mar 12:40:19 12:44:33 66° 101° (E) 12:48:42 437.305
SPROUT 04 Mar 12:42:57 12:47:16 81° 102° (ESE) 12:51:33 437.525
ESTCUBE 1 04 Mar 12:52:48 12:56:19 22° 293° (WNW) 12:59:43 437.505/2401.250
ISS 04 Mar 13:07:51 13:10:06 17° 15° (NNE) 13:12:22 145.825
SWISSCUBE 04 Mar 13:09:29 13:13:14 23° 93° (E) 13:17:06 437.505
BEESAT 04 Mar 13:17:37 13:21:34 26° 94° (E) 13:25:34 436.000
AO-7 04 Mar 13:30:17 13:35:04 18° 50° (NE) 13:40:14 29.400- 29.500
ITUPSAT 1 04 Mar 13:45:42 13:50:23 48° 99° (E) 13:55:03 437.325
Gurwin Techsat 1B 04 Mar 13:58:43 14:03:59 71° 75° (ENE) 14:09:19 435.225
HORYU 2 04 Mar 14:01:48 14:04:50 19° 66° (ENE) 14:08:00 437.375
Oscar 19 04 Mar 14:14:32 14:18:29 21° 268° (W) 14:22:19 437.125/150
ITAMSAT 1 04 Mar 14:15:27 14:20:37 61° 259° (W) 14:25:49 435.822/435.867
TISAT 1 04 Mar 14:18:18 14:19:52 12° 297° (WNW) 14:21:13 437.305
JAS-2 04 Mar 14:23:46 14:26:27 14° 56° (NE) 14:29:34 435.910
KKS-1 04 Mar 14:35:03 14:38:56 30° 96° (E) 14:42:52 437.445
STARS 04 Mar 14:37:24 14:40:38 20° 93° (E) 14:43:58 437.465
